Regional Weather Roundup
Issued by NWS

Home | Current Version | Previous Version | Text Only | Print | Product List | Glossary Off
Versions: 1 2 3 4 5 6 7 8 9 10 11 12 13 14 15 16 17 18 19 20 21 22 23 24 25 26 27 28 29 30 31 32 33 34 35 36 37 38 39 40 41 42 43 44 45 46 47 48 49 50

000
ASUS43 KLOT 201708
RWRIL

ILLINOIS REGIONAL WEATHER ROUNDUP
NATIONAL WEATHER SERVICE CHICAGO/ROMEOVILLE IL
1100 AM CST TUE FEB 20 2018

NOTE: "FAIR" INDICATES FEW OR NO CLOUDS BELOW 12,000 FEET WITH NO
SIGNIFICANT WEATHER AND/OR OBSTRUCTIONS TO VISIBILITY.

* THESE STATIONS ARE NOT UNDER NWS QUALITY CONTROL. THEY ALSO MAY NOT
  REPORT WEATHER SUCH AS PRECIPITATION OR FOG.

ILZ001-002-007-009-015-016-024-201800-
NORTHWEST ILLINOIS

CITY           SKY/WX    TMP DP  RH WIND       PRES   REMARKS
MOLINE         LGT RAIN  37  35  92 W13       29.92R FOG     WCI  29
STERLING*        N/A    N/A N/A N/A MISG        N/A
SAVANNA*       CLOUDY    36  36  99 CALM      29.84F
$$

ILZ003-004-008-010-011-017-018-201800-
NORTH CENTRAL ILLINOIS

CITY           SKY/WX    TMP DP  RH WIND       PRES   REMARKS
ROCKFORD       LGT RAIN  42  42 100 S5        29.82F VSB 1/16
FREEPORT*      LGT RAIN  37  37 100 W10       29.87R WCI  30
ROCHELLE*      FOG       48  48 100 CALM      29.81F VSB 1
DE KALB*       CLOUDY    55  55  99 S10       29.83F FOG
PERU*          PTSUNNY   64  58  79 S22       29.82S
$$

ILZ005-006-012>014-019>023-201800-
NORTHEAST ILLINOIS

CITY           SKY/WX    TMP DP  RH WIND       PRES   REMARKS
CHICAGO-OHARE  CLOUDY    64  58  80 S12G23    29.83F
CHICAGO-MIDWAY CLOUDY    64  60  87 S17G25    29.86R
AURORA         PTSUNNY   62  58  86 S14       29.83F
LANSING*       CLOUDY    63  61  95 S20G28    29.89R
JOLIET*        CLOUDY    65  61  87 S17G23    29.86S
WAUKEGAN       FOG       51  51 100 E6        29.83S VSB 1/2
DUPAGE AIRPORT PTSUNNY   61  59  93 S15       29.83S
KANKAKEE*      CLOUDY    63  62  97 S18G25    29.91S
WHEELING       CLOUDY    63  59  87 S14       29.85S
MORRIS*        PTSUNNY   64  59  85 S20G28    29.84S
ROMEOVILLE*    CLOUDY    63  59  87 S17G26    29.85F
NORTHERLY ISL    N/A     63  57  81 S20         N/A
$$

LMZ740>746-201800-
SOUTHERN LAKE MICHIGAN

STATION/POSITION SKY/WX   TEMP    WIND        PRES    VSBY  WAVE
                          AIR SEA DIR/SP/G                  HT/PER
                          (F)     (DEG/KT/KT) (MB)    (MI)  (FT/S)
HARRISON CRIB              62     200/ 22/ 23   N/A
BURNHAM HARBOR             63     190/ 19/ 20   N/A
CALUMET HARBOR             62     190/ 14/ 22 1011.1R
BURNS HARBOR               62     200/ 20/ 29 1012.5F
MICHIGAN CITY              63     180/ 19/ 21   N/A
$$

ILZ025>027-034>036-040-047-049-050-058-095>099-201800-
WEST-CENTRAL ILLINOIS

CITY           SKY/WX    TMP DP  RH WIND       PRES   REMARKS
QUINCY         LGT RAIN  38  36  92 NW21G33   29.92R WCI  28
GALESBURG*     LGT RAIN  37  37 100 W29G37    29.95R WCI  24
MACOMB*        LGT RAIN  38  38  99 NW32G39   29.96R VSB 3/4 WCI  26
JACKSONVILLE*  PTSUNNY   65  61  85 S18G29    29.86S
PITTSFIELD*    CLOUDY    68  62  79 S21G28    29.84F
$$

ILZ028>032-037-038-041>044-048-051>054-059>061-201800-
CENTRAL ILLINOIS

CITY           SKY/WX    TMP DP  RH WIND       PRES   REMARKS
PONTIAC        PTSUNNY   66  65  95 S31G40    29.87S
BLOOMINGTON    CLOUDY    64  60  87 S33G41    29.87S
DECATUR        LGT RAIN  63  61  93 S21G37    29.94R
PEORIA         PTSUNNY   67  60  78 S20G36    29.83S
LACON*         PTSUNNY   67  60  77 S18G31    29.81S
LINCOLN*       RAIN      65  64  96 S18G30    29.89S
SPRINGFIELD    LGT RAIN  65  61  87 S23G32    29.89F FOG
TAYLORVILLE    CLOUDY    63  62  96 S22G33    29.93F
$$

ILZ033-039-045-046-055>057-062-063-201800-
EAST-CENTRAL ILLINOIS

CITY           SKY/WX    TMP DP  RH WIND       PRES   REMARKS
CHAMPAIGN      LGT RAIN  63  61  93 S31G38    29.95S
DANVILLE*      LGT RAIN  63  61  95 S25G32    29.95R
RANTOUL*       RAIN      65  64  96 S20G31    29.94S
MATTOON        LGT RAIN  64  61  90 S16G28    29.99S
PARIS*         LGT RAIN  65  62  91 S22G28    30.02R
$$

ILZ079-100>102-201800-
SOUTHWEST ILLINOIS

CITY           SKY/WX    TMP DP  RH WIND       PRES   REMARKS
ALTON          LGT RAIN  64  63  94 S21G29    29.94S
BELLEVILLE     RAIN      64  63  94 S20       29.97S
CAHOKIA*       RAIN      66  62  87 S17G35    29.95R FOG
SPARTA*        LGT RAIN  66  64  94 S12       30.02S
$$

ILZ064>066-069>071-074>076-080>082-084>086-088>090-092>094-201800-
SOUTH-CENTRAL ILLINOIS

CITY           SKY/WX    TMP DP  RH WIND       PRES   REMARKS
CARBONDALE     PTSUNNY   72  62  71 S30G40    30.05R
CAIRO*         PTSUNNY   72  63  72 S21G26    30.09F
EFFINGHAM*     RAIN      66  63  89 S13G23    30.04S
MARION         PTSUNNY   70  61  73 S23G36    30.07S
MT. VERNON     CLOUDY    70  61  73 SW24G33   30.04R
CENTRALIA*     CLOUDY    69  63  82 S23G30    30.02S
SALEM*         CLOUDY    68  62  81 S14       30.02S
METROPOLIS*    FAIR      74  59  58 S18G26    30.10S
$$

ILZ067-068-072-073-078-083-087-091-201800-
SOUTHEAST ILLINOIS

CITY           SKY/WX    TMP DP  RH WIND       PRES   REMARKS
LAWRENCEVILLE  FAIR      73  59  61 SW26G40   30.06R
FLORA*         CLOUDY    72  62  69 SW22G32   30.04S
FAIRFIELD*     CLOUDY    71  60  68 S17G29    30.05S
HARRISBURG*    CLOUDY    73  61  66 SW22G31   30.09R
ROBINSON*      CLOUDY    71  58  64 SW25G35   30.06R
CARMI*         PTSUNNY   74  60  60 SW22G33   30.07S
$$

ABBREVIATIONS USED IN REMARKS
   TC - TEMPERATURE IN CELSIUS
  WCI - WIND CHILL INDEX
   HX - HEAT INDEX
  VSB - VISIBILITY
$$





USA.gov is the U.S. government's official web portal to all federal, state and local government web resources and services.